Theta_e
324 326 325 325 325 325 326 326 326 326 325 323 323 325 325 325 328 329 329 328 328 328 328 328 327 327 328 329 328 326 325 326 327 327 327 324 323 324 324 323 322 323 323 323 323 323 322 321 321 321 322 324 325 325 326 327 328 329 329 329 329 329 329 329 330 329 330 330 330 330 330 331 332 332 331 330 329 329 329 329 329 330 331 331 331 331 331 331 330 331 331 331 331 331 331 331 331
325 326 326 325 324 326 327 326 325 326 325 323 324 326 326 326 328 329 328 328 328 328 328 328 327 326 328 328 327 326 323 321 322 324 323 322 324 324 323 323 322 322 322 322 322 321 320 318 317 317 316 318 318 319 321 323 325 326 327 328 329 329 329 330 330 329 329 329 329 329 331 331 331 332 331 331 329 329 330 329 329 329 330 330 331 331 331 331 330 331 330 331 331 331 331 332 332
326 326 326 325 325 327 328 326 326 325 325 323 325 327 327 327 328 329 329 329 329 328 328 327 326 325 326 327 326 326 323 321 322 322 322 322 323 323 322 322 321 319 319 320 319 318 316 314 312 311 311 311 311 312 314 317 320 323 325 326 327 328 328 329 329 330 329 329 329 328 329 330 331 331 331 331 329 329 329 329 329 328 329 329 330 331 331 330 331 330 330 331 331 332 331 332 332
326 326 325 326 327 327 327 326 326 325 324 323 325 326 327 328 327 329 330 328 327 327 327 326 325 324 326 325 324 325 321 317 318 319 320 320 321 322 322 321 319 317 316 316 315 313 311 311 311 311 311 311 311 311 311 311 313 315 317 320 323 326 327 327 327 329 329 329 329 328 328 328 330 331 330 331 330 329 328 329 328 328 329 329 329 330 330 330 330 330 330 330 331 332 332 332 331
326 327 325 326 328 327 327 326 326 325 323 324 325 326 326 327 328 328 328 327 326 326 327 326 325 323 322 318 317 317 315 314 314 317 318 318 320 320 321 321 317 315 314 313 312 311 311 312 312 313 313 313 313 313 312 311 310 309 310 311 313 317 322 325 326 327 328 328 328 328 328 328 329 330 330 330 330 329 328 328 327 328 328 328 328 328 329 329 330 330 330 330 330 331 331 332 331
325 327 326 326 327 327 327 325 325 325 324 326 327 326 325 326 328 328 327 326 325 325 325 326 324 322 316 310 310 308 308 313 313 317 318 318 320 320 321 320 317 315 313 313 313 313 313 313 313 314 314 314 314 313 313 312 311 309 308 308 308 309 312 317 321 323 324 326 327 327 327 327 327 328 329 329 331 329 327 326 326 327 327 326 327 328 328 328 329 329 329 329 329 329 330 331 330
325 327 327 326 326 326 327 325 324 326 325 325 326 326 325 325 328 327 326 326 325 323 323 324 322 321 315 310 310 307 308 313 313 315 318 319 319 320 320 319 317 315 314 314 314 314 314 314 314 314 314 314 314 314 313 312 310 309 307 307 307 307 307 308 311 315 318 320 322 324 324 325 325 326 326 327 330 329 327 325 325 326 326 325 325 327 327 328 328 328 328 328 328 328 328 328 329
325 327 327 327 325 326 327 326 325 326 325 323 323 323 323 325 327 327 326 326 325 323 323 322 321 322 320 315 312 307 308 312 312 314 315 317 317 318 318 317 316 315 315 315 315 315 315 315 315 315 314 314 313 313 312 311 309 308 307 307 307 307 308 308 307 308 310 312 313 315 317 319 322 324 325 326 328 329 326 324 324 325 324 324 325 326 327 327 327 327 328 328 327 327 327 327 327
324 326 326 327 325 325 325 326 326 325 323 321 320 321 323 324 326 327 326 326 325 322 318 319 320 321 319 314 309 306 309 310 311 312 313 315 316 316 317 317 316 316 316 316 316 316 316 316 316 315 315 314 313 312 311 310 309 308 307 307 308 308 309 309 309 308 307 307 308 308 311 316 320 323 324 324 327 328 325 323 323 323 321 321 323 324 325 326 327 327 327 326 325 325 325 325 326
324 324 325 325 323 323 323 323 325 324 322 320 319 319 321 323 325 325 325 324 323 320 316 317 320 321 318 312 307 306 309 310 310 310 313 315 314 315 315 316 316 316 317 316 317 316 316 316 315 315 315 314 313 312 311 309 309 309 309 309 309 311 312 311 310 309 308 307 306 309 313 318 320 322 324 325 327 326 324 322 321 322 320 320 321 320 322 325 326 326 325 324 323 322 322 322 323
323 322 323 322 320 320 319 321 324 323 320 319 316 315 317 320 321 322 324 321 318 317 314 316 319 319 317 311 306 305 307 310 311 311 313 314 312 313 314 314 314 315 315 315 316 316 315 315 314 314 314 313 312 312 311 310 310 310 310 310 312 314 314 313 312 310 310 310 311 315 318 319 320 323 326 326 326 325 323 321 320 321 320 319 319 318 320 323 324 324 323 322 320 319 318 318 318
321 322 322 320 319 318 319 321 324 323 319 317 315 313 314 317 320 322 322 318 315 313 308 309 313 315 317 313 307 304 306 310 311 311 311 311 311 311 311 311 312 312 313 313 313 313 313 313 312 312 311 311 312 312 312 312 311 312 312 311 313 315 315 314 314 314 315 317 319 320 320 321 322 324 326 325 324 323 321 320 319 321 320 319 319 318 319 322 323 323 322 321 319 316 315 315 314
320 323 320 318 321 321 321 322 322 322 319 316 314 312 312 315 317 317 318 314 312 311 306 305 308 311 314 312 306 303 307 310 309 309 309 310 310 310 310 310 311 312 312 312 312 311 311 310 309 309 309 310 312 313 313 313 312 313 313 313 315 316 316 317 318 319 321 322 322 322 322 322 321 321 322 322 322 321 320 320 320 320 320 319 318 318 319 321 322 322 321 319 318 316 313 311 311
320 323 320 319 322 322 321 321 321 322 320 315 311 309 310 310 309 309 312 310 305 304 303 304 307 308 309 309 305 302 305 307 307 308 308 309 310 310 310 310 311 312 312 312 310 308 307 306 306 307 308 310 312 312 313 313 314 314 314 314 316 317 319 322 322 321 323 323 322 322 320 318 317 317 318 318 318 318 320 321 321 321 320 319 318 317 318 319 321 321 319 317 316 314 312 309 310
322 323 321 320 321 321 321 320 319 321 318 312 309 308 307 305 304 305 307 306 302 300 301 303 306 306 305 305 303 300 302 304 304 305 306 308 308 309 309 308 309 310 309 307 306 304 304 305 306 307 308 309 311 312 313 314 315 314 314 316 316 316 319 323 323 323 325 323 320 318 317 316 316 316 316 316 316 316 317 319 321 320 320 320 319 317 317 319 321 321 319 316 315 313 311 310 310
321 321 320 319 320 320 320 319 318 318 315 310 308 307 308 304 304 304 302 303 301 299 301 301 302 303 300 300 299 298 300 301 300 302 303 304 305 306 305 305 305 305 304 303 302 302 303 304 305 307 308 309 310 312 314 315 316 314 314 317 317 317 318 322 324 324 324 319 316 315 315 316 316 317 317 316 315 314 315 317 318 318 318 319 319 318 318 319 320 320 318 317 315 314 313 312 312
319 319 319 318 318 317 317 318 317 316 312 310 307 307 309 304 303 303 301 303 300 299 300 298 299 299 298 297 297 297 298 298 298 299 300 301 301 302 302 301 301 301 301 301 301 301 302 303 305 307 308 309 310 312 314 314 315 315 314 317 318 317 318 320 321 323 322 316 315 315 315 316 317 317 317 317 315 314 315 316 317 317 318 319 320 319 318 319 319 319 319 317 315 314 314 313 313
318 318 316 316 316 316 316 317 315 313 312 310 307 307 308 305 303 302 302 303 300 299 298 296 297 297 296 296 296 296 297 297 298 298 299 300 300 300 300 300 300 300 300 300 301 301 301 303 305 307 308 309 311 312 313 313 314 315 314 316 318 318 317 318 318 321 320 316 315 315 315 315 316 317 316 316 316 315 316 316 316 317 318 319 319 319 319 319 319 318 318 318 316 315 314 313 313
317 316 315 314 315 314 315 316 313 311 311 309 306 305 307 304 302 302 303 303 301 301 299 297 297 295 295 295 295 296 296 297 297 298 299 299 299 299 299 299 299 299 300 300 300 301 302 304 305 306 308 309 310 311 312 312 313 314 314 314 316 317 317 318 317 318 320 317 316 315 315 315 317 318 317 317 317 316 316 316 316 316 316 317 318 318 317 318 318 318 318 318 317 317 316 315 314
316 315 314 314 314 313 314 314 311 309 309 308 305 304 303 301 300 302 303 302 301 300 298 298 297 294 294 295 295 296 296 297 297 298 298 298 298 298 298 298 299 299 300 300 300 301 302 303 304 305 307 308 309 310 311 312 312 313 313 313 313 315 315 317 316 317 318 318 317 316 315 315 316 317 317 317 317 317 317 316 316 316 315 315 317 316 315 315 317 317 317 317 316 316 317 317 317
315 315 314 315 313 312 313 312 310 307 307 306 304 304 302 299 299 301 303 304 301 297 295 295 294 293 294 295 295 296 296 296 296 296 297 297 297 297 297 297 297 298 298 299 300 301 302 303 304 305 306 307 308 308 309 310 311 311 311 312 312 312 313 314 314 314 315 316 316 316 315 315 316 316 316 317 317 317 317 317 317 316 315 315 315 316 315 314 315 316 317 316 316 315 314 316 317
315 314 314 314 312 312 310 310 311 308 306 305 305 304 301 298 298 298 300 303 299 294 293 292 293 294 294 294 295 295 295 295 295 295 295 295 295 294 294 294 294 295 295 296 297 298 300 301 303 304 305 306 307 307 308 309 310 310 310 310 310 310 310 310 311 311 312 313 314 314 315 316 316 316 316 317 317 317 317 317 317 316 316 315 315 315 315 315 315 315 315 315 316 315 314 315 316
313 313 311 311 312 311 307 307 310 307 305 305 304 302 299 298 297 295 296 297 293 291 292 293 293 294 294 294 294 294 293 293 293 293 292 292 292 292 292 292 292 292 292 292 293 293 294 296 297 299 301 302 302 303 304 305 305 305 305 306 306 305 305 306 307 307 308 310 311 312 312 313 313 314 314 316 316 316 316 316 317 317 316 316 315 315 315 315 315 315 314 315 316 316 315 315 316
309 310 308 309 310 309 306 306 307 305 304 303 301 300 299 299 297 294 293 291 290 292 292 293 293 293 293 293 293 292 292 291 291 291 291 291 291 291 291 290 291 290 291 291 291 291 291 292 292 293 295 295 295 296 297 297 297 297 298 298 299 298 298 298 299 300 302 303 305 307 309 310 311 311 311 312 313 314 315 315 315 316 316 316 316 315 316 316 316 315 315 316 316 315 315 315 315
307 307 306 306 306 305 305 305 304 304 302 301 300 299 297 297 296 294 292 291 290 291 292 292 292 292 292 292 291 290 290 290 290 290 290 290 290 290 290 290 290 290 290 291 291 291 291 291 291 291 292 292 292 293 294 293 293 293 294 294 294 294 294 293 294 294 295 296 297 299 302 305 307 308 308 309 310 311 312 312 313 314 315 316 316 315 316 316 316 315 315 315 316 315 314 314 313
306 306 305 305 304 302 303 303 302 302 301 300 300 297 295 295 296 294 291 290 290 290 291 291 290 290 290 290 290 289 290 290 289 290 290 290 290 290 290 290 290 290 290 291 291 291 291 291 291 292 292 292 292 292 292 292 292 292 292 292 292 293 293 292 292 292 292 292 293 293 294 296 299 301 304 305 307 308 309 310 310 311 312 313 314 314 314 315 315 315 315 315 315 315 314 314 313
305 305 305 305 303 302 302 302 301 301 300 301 300 297 296 295 297 296 291 290 290 290 291 290 290 289 289 289 289 289 289 290 289 289 290 290 290 290 290 290 290 290 291 291 291 291 291 291 292 292 292 292 292 292 292 292 292 292 292 292 292 292 292 292 292 292 292 292 292 292 291 292 292 294 296 298 301 303 305 307 308 308 309 310 311 312 312 312 313 313 314 314 314 314 314 314 313
304 305 304 303 303 302 302 301 300 301 300 300 299 297 297 296 297 295 291 290 290 290 290 289 289 289 289 289 289 289 289 289 289 290 290 290 290 290 290 290 290 290 291 291 291 291 291 291 292 292 292 292 292 292 292 293 292 292 293 292 292 293 293 292 292 292 292 292 292 292 292 291 291 291 291 292 294 296 298 301 304 305 307 308 308 309 310 311 311 311 312 312 312 313 313 313 313
303 304 305 304 304 303 302 301 300 301 300 299 300 301 299 297 294 292 290 290 290 290 290 289 289 288 289 289 289 289 289 289 290 290 290 290 290 290 290 290 290 290 290 290 290 291 291 291 291 291 292 292 292 292 292 292 292 292 292 292 292 292 292 292 292 292 292 292 292 292 291 291 291 291 291 291 291 292 292 294 296 299 302 305 307 307 308 309 310 310 310 311 311 312 312 312 312
304 304 305 305 305 304 302 300 300 300 300 299 301 304 302 295 292 291 290 290 290 291 290 289 288 288 288 289 289 289 289 289 289 290 290 290 290 290 290 290 290 290 290 290 290 290 291 291 291 291 291 291 291 292 292 292 292 292 292 292 292 292 292 292 292 291 291 291 291 291 291 291 291 291 291 291 291 291 291 291 292 293 295 298 302 304 306 307 308 309 309 310 310 310 311 310 310
304 304 305 305 305 305 302 301 301 301 299 297 300 306 303 294 292 292 290 290 291 291 290 289 289 288 288 288 288 288 288 289 289 289 289 289 290 289 289 289 290 290 290 290 290 290 290 291 291 291 291 291 291 291 291 291 291 291 291 291 291 291 291 291 291 291 291 291 291 291 291 291 290 290 290 290 290 291 291 291 291 291 291 293 295 298 302 304 305 306 308 308 309 309 309 309 309
304 304 305 306 305 305 303 301 302 301 299 297 300 305 302 294 293 291 290 290 291 292 291 289 289 288 288 288 288 287 288 288 288 289 289 289 289 289 289 289 289 290 290 290 290 290 290 290 290 290 290 291 290 290 290 290 290 290 290 290 290 290 290 290 290 290 290 290 290 290 290 290 290 290 290 290 290 290 290 290 290 290 290 290 291 293 296 300 302 304 305 306 307 308 308 308 309
305 305 305 306 306 306 304 301 301 301 300 299 301 304 300 296 294 291 291 291 291 292 291 289 289 288 288 288 288 287 287 288 288 288 289 289 289 289 289 289 289 289 290 290 290 290 290 290 290 290 290 290 290 290 290 290 290 290 290 290 290 290 290 290 289 289 289 289 289 289 289 289 289 289 289 289 289 289 289 289 289 289 289 289 289 290 291 294 298 301 303 303 304 305 306 307 307
306 305 306 306 306 306 306 303 301 301 302 301 301 302 298 295 294 292 291 291 292 292 291 290 289 289 289 288 288 288 288 287 287 288 288 288 289 289 289 289 289 289 289 289 289 289 289 289 289 289 289 289 289 289 289 289 289 289 289 289 289 289 289 289 289 289 288 288 288 288 288 288 288 288 288 288 288 288 288 288 288 289 289 289 288 288 289 290 292 296 299 302 302 303 303 305 306
306 306 306 306 306 306 306 304 301 301 303 302 301 301 296 293 293 292 291 291 292 292 291 290 290 289 289 289 288 288 288 288 287 288 288 288 289 289 289 289 289 289 289 289 289 289 289 289 289 289 289 289 289 289 289 289 289 288 288 288 288 288 288 288 288 288 288 288 288 287 287 287 287 287 287 287 287 287 287 288 288 288 288 288 288 287 287 288 289 290 293 297 300 301 301 302 303
307 307 307 307 306 305 304 303 301 301 303 301 301 301 296 293 293 292 292 291 292 292 291 291 290 290 289 289 289 288 288 288 288 288 288 288 288 288 289 288 288 288 288 288 289 289 289 289 289 289 289 289 289 289 289 288 288 288 288 287 287 287 288 288 288 288 287 287 287 287 287 287 286 286 286 286 286 287 287 287 287 287 287 287 287 287 287 287 287 288 288 290 293 296 299 300 301
306 306 306 306 306 305 302 301 300 300 303 300 298 299 296 294 293 293 293 291 292 292 292 291 291 290 290 290 289 289 288 288 288 288 288 288 288 288 288 288 288 288 288 288 288 288 288 288 289 289 289 289 288 288 288 288 287 287 287 287 286 286 287 287 287 287 287 287 286 286 286 286 286 286 286 286 286 286 286 286 286 287 287 287 286 286 286 286 286 286 286 287 288 290 293 296 298
305 306 306 305 305 304 300 300 299 299 303 300 296 298 296 294 293 293 293 292 293 293 292 292 291 291 290 290 290 289 288 288 288 288 288 288 288 288 288 288 288 288 288 288 288 288 288 288 288 288 288 288 288 287 287 287 286 286 286 286 286 286 286 286 286 286 286 286 286 286 286 285 285 285 285 285 285 285 285 285 285 286 286 286 286 285 285 285 285 285 285 285 286 287 288 290 294
305 305 305 304 304 303 300 300 299 298 302 300 297 298 296 293 294 293 293 293 293 293 293 293 292 291 291 290 290 289 289 288 288 288 288 288 288 288 288 288 288 288 288 288 288 288 287 287 287 287 287 287 287 286 286 286 286 286 285 285 285 285 285 285 285 285 285 285 285 285 285 285 285 285 284 284 284 284 284 284 284 284 284 284 284 284 284 283 283 284 284 284 284 285 286 287 290
304 304 304 304 303 303 303 302 299 298 300 300 298 299 297 294 294 294 294 294 293 293 292 292 292 292 291 291 290 290 289 289 288 288 288 288 288 288 288 288 288 288 288 288 287 287 287 287 287 286 286 286 286 286 286 285 285 285 285 285 285 285 285 285 285 284 284 284 284 284 284 284 284 284 284 284 284 283 283 283 283 283 282 282 282 283 283 283 282 282 282 283 283 284 284 285 286
303 303 303 304 302 303 303 301 299 298 299 299 299 301 299 296 295 295 294 293 293 293 292 292 292 291 291 290 290 289 289 289 289 288 288 288 288 288 288 288 288 288 288 288 287 287 287 287 286 286 286 286 286 286 285 285 285 285 285 285 285 285 284 284 284 284 284 284 284 284 283 283 283 283 283 283 282 282 282 282 282 282 281 281 281 281 281 281 281 281 281 281 282 282 283 283 284
303 302 302 303 302 302 302 300 299 300 301 299 299 302 302 298 296 296 295 294 294 294 294 293 293 292 291 290 290 289 289 289 289 289 289 288 288 288 288 288 288 288 288 288 287 287 287 287 287 287 287 286 286 286 285 285 285 285 285 285 285 285 284 284 284 284 284 284 284 283 283 283 282 282 282 282 282 281 281 281 281 281 281 280 280 280 280 280 281 281 281 281 281 281 281 282 282
303 301 300 301 301 301 301 301 301 302 302 299 298 301 302 299 297 296 295 295 295 295 295 295 294 294 293 292 291 291 290 289 289 289 288 288 288 288 288 288 288 288 288 288 287 287 287 287 287 287 287 286 286 285 285 285 285 285 285 285 285 285 285 284 284 284 284 284 283 283 283 282 282 282 282 281 281 281 281 281 281 280 280 280 280 280 280 280 280 280 280 280 280 280 280 280 281
302 299 298 300 300 301 301 301 301 301 300 299 298 300 302 301 298 296 295 296 297 296 296 296 296 295 294 293 292 292 291 290 290 289 288 288 288 288 288 288 288 288 288 288 288 288 287 287 287 287 286 286 286 285 285 285 285 285 284 284 284 284 284 284 284 284 284 284 283 283 282 282 282 282 281 281 281 281 280 280 280 280 280 279 279 279 279 279 279 279 280 280 280 280 280 280 280
301 297 298 299 299 300 300 301 301 300 300 301 300 299 301 301 298 296 296 297 297 297 297 297 296 296 295 294 294 293 292 291 290 289 289 288 288 288 288 289 288 288 288 288 288 288 288 287 287 286 286 286 286 285 285 285 284 284 284 284 284 284 284 284 284 284 284 284 283 283 282 282 282 282 281 281 281 281 280 280 279 279 279 279 279 279 279 279 279 279 279 279 279 279 279 279 279
299 297 297 298 298 298 299 300 301 299 300 301 299 298 299 300 299 297 297 297 297 296 297 297 297 296 295 295 294 294 293 292 291 290 290 289 288 289 289 289 289 288 288 288 288 288 287 287 286 286 286 286 286 285 285 284 284 283 283 283 283 283 283 283 283 283 283 284 283 283 282 282 282 282 281 281 281 281 281 280 280 279 279 279 279 279 279 279 278 278 278 278 278 279 279 279 278
298 298 298 298 298 298 298 299 299 299 300 300 298 297 297 298 299 299 298 297 297 296 296 296 297 296 295 294 294 294 294 293 293 292 291 290 289 289 289 289 289 289 289 289 288 288 287 287 286 286 286 286 286 285 284 284 283 283 283 282 282 282 282 282 282 282 282 282 283 283 283 282 282 281 281 281 281 281 281 281 280 279 279 279 279 279 279 278 278 278 278 278 278 278 278 278 278
297 298 299 299 298 299 299 298 298 299 300 299 297 296 296 297 299 299 297 296 296 296 296 296 297 297 295 294 294 294 294 294 294 293 293 291 290 289 289 290 290 289 289 289 288 288 287 287 287 286 286 285 285 284 283 283 282 282 282 282 281 281 281 281 281 281 281 281 282 282 282 282 282 281 281 281 281 281 281 281 280 279 279 279 279 279 279 278 278 278 278 277 277 277 277 277 277
297 298 299 299 298 298 299 299 298 298 299 297 296 295 296 297 298 298 297 296 296 296 296 296 296 296 295 294 294 294 294 294 294 294 293 292 291 290 290 290 290 289 289 288 288 287 287 287 286 286 285 284 283 283 282 282 281 281 281 281 281 280 280 280 280 280 280 280 281 281 282 282 282 281 281 281 281 281 280 280 280 279 279 279 279 279 279 279 278 278 278 277 277 277 277 277 277
298 298 298 299 298 298 299 298 297 297 297 295 294 295 296 297 297 297 296 295 295 295 295 295 294 294 294 293 293 293 293 293 293 293 292 292 291 291 290 290 290 289 288 288 287 287 287 286 285 284 284 283 282 282 281 281 281 280 280 280 279 279 279 279 279 279 279 280 280 281 281 281 281 281 281 281 280 280 280 280 279 279 278 279 279 279 279 279 278 278 278 277 277 277 277 277 277
298 297 297 299 299 298 299 298 298 298 297 295 294 295 296 297 296 295 295 294 293 293 293 293 293 292 292 292 292 292 292 292 292 292 291 291 291 290 290 290 289 288 288 287 287 286 286 285 284 283 283 282 281 281 280 280 280 279 279 278 278 279 279 279 279 279 280 280 280 280 280 280 281 281 281 280 280 280 280 279 279 278 278 278 278 278 278 278 278 278 278 278 277 277 277 277 277
297 296 298 299 298 297 297 296 296 296 296 296 295 295 295 295 294 294 294 293 292 292 292 292 292 291 291 291 291 291 291 290 290 290 290 290 290 290 289 289 288 288 287 286 286 285 285 284 283 282 282 281 280 280 280 279 278 278 277 278 278 278 278 278 279 279 279 279 280 280 280 280 280 280 281 280 280 280 280 279 279 278 278 278 278 278 278 278 278 278 278 278 278 277 277 277 277
297 297 298 297 295 296 296 294 293 294 296 296 296 296 294 293 294 293 292 293 292 292 292 292 292 291 291 291 290 290 290 289 289 289 289 289 289 289 288 288 287 287 286 286 285 285 284 283 283 282 281 280 280 279 279 278 277 277 277 278 278 277 277 278 278 278 278 279 279 279 279 279 279 279 280 280 279 279 280 279 279 279 278 278 278 278 278 278 278 278 278 278 278 277 277 277 276
297 298 297 295 294 295 295 295 295 295 296 295 295 295 295 294 295 293 292 293 293 292 292 292 291 291 291 290 290 289 289 289 288 288 288 288 288 287 287 287 287 286 286 285 285 284 283 282 282 281 280 279 278 278 277 276 276 277 277 277 276 276 277 277 277 277 277 278 278 278 278 278 279 279 279 279 279 279 279 279 279 279 279 278 278 278 278 278 278 278 278 278 277 277 277 277 276
296 297 295 294 296 297 296 295 295 296 295 295 294 293 293 295 296 294 293 294 294 293 292 292 291 291 290 290 289 289 288 288 288 287 287 287 287 287 286 286 286 286 285 285 284 283 282 281 280 280 279 278 277 276 276 276 276 277 276 276 276 276 276 276 276 276 276 277 277 277 277 277 278 278 278 279 279 279 279 279 279 279 278 278 278 278 278 278 278 278 277 277 277 277 277 276 276
295 295 294 294 295 295 295 294 295 296 295 295 294 293 294 296 296 296 296 295 294 293 292 292 291 291 290 289 289 289 288 288 288 287 287 286 286 286 286 285 285 285 284 283 283 282 281 280 279 278 277 277 276 276 276 276 276 276 275 275 275 275 275 275 275 275 275 276 276 276 276 276 276 277 277 277 278 278 278 278 278 278 278 278 278 278 278 277 277 277 277 277 277 277 276 276 275
295 295 295 295 293 293 294 293 293 294 295 294 294 294 295 295 295 296 296 294 294 293 292 292 291 290 290 289 289 289 288 288 287 287 286 286 286 285 285 285 285 284 283 282 281 280 279 278 278 277 277 276 276 276 276 276 275 275 275 275 275 275 275 274 274 275 275 275 275 275 275 275 275 276 276 276 277 277 277 278 278 278 277 277 277 277 277 277 276 276 276 276 276 276 276 275 275
295 295 295 295 294 293 294 294 291 291 293 293 293 294 296 295 294 295 296 294 294 293 292 292 291 290 289 289 288 288 288 287 287 286 286 285 285 285 285 284 283 283 281 280 280 279 278 277 277 276 276 275 275 275 276 275 275 275 275 274 274 274 274 274 274 274 274 274 274 274 274 274 274 275 275 275 275 276 276 277 277 277 277 277 276 276 276 275 275 275 275 276 276 275 275 274 274
Wind_Speed
10 7 3 2 4 4 4 3 3 2 2 4 2 1 3 2 0 5 7 5 5 4 5 8 8 7 8 12 16 17 17 10 6 2 3 3 4 8 9 9 10 10 11 10 10 8 7 8 8 9 9 11 11 12 12 12 13 13 14 14 15 14 14 14 14 13 13 15 17 18 19 20 19 17 17 16 16 17 17 16 17 17 17 17 16 15 15 14 14 14 14 14 14 15 16 17 18
6 4 1 2 5 4 3 3 3 2 4 4 3 1 3 4 4 7 8 6 6 7 9 11 13 16 18 19 16 14 16 12 8 6 6 3 6 4 9 10 11 10 11 11 10 9 8 9 10 10 10 11 12 13 13 13 13 13 14 14 14 14 14 14 14 13 13 15 16 17 19 21 20 19 20 19 17 18 18 17 17 17 17 17 16 15 15 15 15 15 15 15 15 17 17 17 18
3 2 0 3 5 3 3 4 3 3 5 3 3 3 3 6 5 6 7 7 9 12 12 11 12 10 9 11 8 8 7 8 10 8 5 4 6 3 8 10 10 9 10 10 10 9 10 11 12 13 13 14 15 16 16 17 17 17 16 16 16 15 14 13 14 13 13 14 15 17 18 20 22 22 23 22 20 20 20 18 17 17 17 17 16 15 15 15 15 16 16 16 17 17 17 18 19
1 2 1 4 4 3 3 3 3 4 4 2 2 4 3 4 5 7 7 8 10 11 8 8 8 7 7 9 7 9 8 7 9 7 6 8 5 4 8 8 7 7 8 8 9 9 11 12 13 14 15 16 17 19 20 20 20 20 20 20 20 18 17 16 16 15 14 15 15 16 17 18 20 23 24 23 21 22 22 19 17 17 17 16 16 15 16 16 14 14 14 16 17 16 15 17 18
1 2 2 5 3 2 2 2 2 4 2 1 2 5 4 3 6 8 7 6 8 7 5 6 6 7 12 12 6 5 6 5 6 8 8 10 7 6 7 6 5 4 6 7 8 9 11 12 13 15 16 17 18 19 21 22 22 22 23 23 23 22 21 20 19 18 17 17 17 16 17 18 19 20 23 24 23 23 22 19 18 18 17 15 14 15 15 14 12 11 12 14 15 13 13 13 16
0 1 2 4 2 1 2 2 3 3 1 2 3 6 4 4 7 10 9 7 6 6 5 6 8 11 12 12 12 9 6 3 4 8 7 7 5 5 5 5 5 4 5 7 9 10 11 13 14 16 16 17 18 19 21 22 23 25 26 25 24 23 23 23 23 22 20 19 19 18 18 19 20 20 22 24 25 23 21 20 19 18 16 14 12 13 13 11 11 10 12 14 14 12 11 8 9
2 1 2 4 2 1 4 3 3 3 2 3 2 5 4 4 8 11 11 9 8 7 9 10 12 13 10 7 12 12 7 5 5 7 6 5 5 5 6 5 5 5 6 7 9 11 12 13 15 16 17 18 19 21 22 23 24 26 26 25 24 24 23 24 24 24 23 22 22 21 20 20 21 22 23 21 21 22 20 19 17 16 15 14 12 12 12 11 11 11 11 12 11 10 11 8 6
4 3 2 3 2 1 4 2 1 1 2 1 2 1 1 4 9 12 10 7 7 7 9 9 8 8 8 7 7 8 8 8 8 8 6 5 5 6 6 6 6 6 7 9 10 12 13 14 15 17 18 19 20 22 23 24 25 26 25 25 24 25 24 23 23 24 24 24 24 22 22 21 21 21 21 18 18 20 18 18 15 13 14 14 12 12 12 10 11 11 10 9 8 9 10 10 8
4 4 2 3 2 2 3 2 2 1 2 1 0 0 1 4 9 10 8 7 8 9 8 3 2 6 11 12 10 7 7 7 8 9 6 5 6 7 7 7 7 8 9 11 12 13 15 16 17 18 18 19 21 21 22 23 24 24 24 23 24 25 25 24 23 22 21 21 22 21 21 20 19 19 20 18 19 22 18 17 16 13 12 12 11 11 12 11 11 11 11 10 8 7 7 8 8
4 3 2 2 2 3 4 3 2 2 2 1 1 0 2 6 7 6 9 8 7 8 10 8 8 11 14 13 10 6 7 4 4 6 4 5 6 7 8 9 10 11 12 14 15 16 18 18 19 18 18 19 20 20 21 22 22 22 22 23 24 24 24 24 23 21 18 17 17 17 17 16 17 19 19 18 19 22 17 16 15 14 12 11 11 12 14 13 12 11 9 8 7 6 6 7 8
4 3 2 2 4 4 4 3 3 3 2 1 1 2 2 5 6 5 10 10 7 8 10 9 10 13 13 10 8 7 8 3 3 1 3 4 6 8 9 11 12 13 15 16 17 18 19 19 19 18 18 18 19 19 20 20 21 21 21 22 22 22 22 22 21 19 16 13 13 13 14 14 14 15 13 13 15 16 13 12 12 13 13 11 11 13 15 14 15 14 9 6 6 8 9 10 11
4 3 3 4 4 3 2 3 4 4 3 4 4 4 3 4 6 8 11 10 9 11 11 8 7 9 8 9 8 6 5 4 3 2 4 5 7 9 10 12 13 15 16 17 18 19 19 20 19 18 18 18 17 17 18 18 19 20 21 22 21 20 20 20 18 15 13 11 11 12 12 11 10 9 5 7 10 10 11 11 11 14 15 16 14 13 15 15 16 17 16 12 9 10 9 10 13
5 3 4 3 1 1 1 2 3 4 3 5 4 4 4 4 4 6 10 11 8 8 9 8 8 6 6 9 8 5 3 4 4 4 6 7 9 10 12 13 14 16 17 18 18 19 19 19 19 18 17 16 15 15 16 17 18 19 20 20 19 19 20 16 12 10 12 12 12 11 12 13 12 7 2 3 4 6 8 9 11 12 12 14 14 14 15 15 14 15 17 17 18 19 11 8 15
6 4 4 1 1 2 2 2 3 4 4 6 4 4 5 6 7 6 8 9 9 5 7 9 9 7 6 7 5 6 5 5 6 6 7 9 9 11 12 13 15 16 17 18 18 18 18 18 18 17 15 14 12 13 15 16 17 19 20 17 16 19 17 12 9 11 13 12 13 15 15 12 10 8 7 5 4 2 2 5 7 8 7 9 12 13 14 15 14 12 12 15 18 19 12 8 13
6 5 2 1 2 3 3 1 2 5 4 6 4 6 10 9 6 7 7 7 7 5 7 9 6 5 3 3 4 6 7 6 7 7 7 8 8 9 11 12 13 14 15 16 16 17 17 17 16 15 14 13 13 13 14 15 15 17 18 13 13 17 16 12 10 11 12 13 16 16 12 10 9 9 9 7 5 3 0 3 5 7 7 8 10 11 13 14 13 11 11 12 12 13 13 13 15
7 5 2 2 2 3 3 2 2 4 3 6 8 9 11 10 7 9 10 9 11 9 7 9 9 8 7 7 7 7 8 8 7 6 6 6 6 7 8 9 10 11 12 13 14 15 16 16 15 15 14 14 14 13 13 13 13 16 15 10 10 13 16 12 8 9 13 17 18 15 14 14 12 9 7 5 4 3 3 3 6 7 8 9 9 11 12 12 12 12 13 13 11 11 14 16 17
6 4 3 2 3 2 3 5 3 2 5 8 9 5 8 9 10 14 12 13 17 15 14 15 14 13 13 11 9 8 9 8 7 6 5 4 4 4 5 6 8 10 12 14 15 15 16 16 16 15 14 14 14 13 12 11 12 14 14 9 7 8 13 13 6 7 14 20 19 18 17 16 13 10 7 3 1 3 5 4 7 8 9 9 9 10 11 11 11 12 13 12 11 11 14 15 16
5 3 3 3 2 2 3 5 3 2 6 10 7 3 8 9 8 12 10 13 17 17 18 17 15 15 14 12 9 9 9 9 8 6 5 4 5 7 8 11 13 14 15 16 18 18 17 16 16 16 15 15 15 14 13 13 12 14 14 10 8 7 9 12 10 5 12 17 15 13 11 9 8 6 5 3 1 5 6 6 7 9 10 11 11 11 11 12 12 11 12 13 13 13 14 15 14
3 1 2 2 1 2 1 4 4 2 7 11 7 5 8 9 7 7 5 8 11 13 13 11 13 14 12 11 11 10 10 9 9 8 8 9 12 14 16 17 18 18 18 19 21 21 19 18 18 17 17 18 18 17 16 16 15 15 15 12 10 9 8 7 8 5 7 11 8 5 3 1 1 4 5 6 6 7 8 8 8 10 12 14 13 12 12 13 12 12 14 15 15 16 16 16 16
2 3 3 1 3 2 2 3 3 3 8 12 9 8 10 8 6 5 8 10 9 9 8 7 10 12 12 12 12 12 12 11 11 12 14 16 17 18 19 20 20 21 21 22 22 22 21 20 20 20 19 19 18 19 19 18 17 17 17 15 12 12 11 8 6 5 3 5 7 7 8 8 8 10 10 11 11 10 10 10 11 11 14 16 15 14 14 15 15 15 17 18 18 19 19 18 18
3 3 2 2 4 3 3 2 3 4 7 12 11 12 11 8 7 6 6 7 8 8 7 8 9 10 12 13 13 13 13 14 16 18 19 20 21 21 23 23 23 23 23 23 24 24 24 22 21 21 20 20 18 18 19 20 20 20 20 20 18 16 16 13 11 9 6 2 3 6 9 12 14 15 15 14 15 15 14 13 13 13 14 16 17 16 15 15 17 19 20 20 21 22 22 21 20
3 2 3 4 4 3 3 2 5 6 9 13 11 10 10 10 11 10 5 4 5 6 6 7 9 11 12 13 15 16 16 19 20 22 23 24 25 25 26 26 26 25 25 26 26 26 25 24 22 21 21 20 20 18 18 19 19 21 22 23 23 22 21 20 18 16 13 11 10 9 9 11 13 15 16 17 18 19 18 17 15 14 15 16 17 17 17 17 18 20 21 22 23 22 22 23 22
3 2 2 3 3 2 4 3 6 8 10 10 9 12 13 12 12 13 15 13 8 7 6 8 10 11 13 14 16 17 19 22 23 25 26 26 27 27 28 28 28 29 29 29 29 28 27 25 24 22 21 22 22 21 19 19 19 20 22 22 22 23 24 23 24 24 22 19 17 15 15 14 13 14 13 12 16 19 20 18 16 16 16 17 18 19 19 19 20 21 21 21 21 21 21 22 22
3 1 3 3 2 3 3 5 8 8 9 10 12 14 9 8 9 11 17 14 8 8 8 9 11 12 15 17 18 20 22 24 25 26 27 28 28 28 29 29 30 30 31 31 31 31 30 30 28 26 25 25 25 24 23 24 23 23 23 23 23 24 25 25 25 25 24 24 22 20 19 19 19 18 18 15 13 14 15 15 15 16 17 18 19 20 21 21 21 21 21 21 20 20 20 21 21
3 2 4 4 4 4 5 8 9 10 13 15 16 14 11 11 13 12 12 9 8 8 8 10 13 15 17 19 21 23 24 26 27 27 28 29 29 29 29 30 31 31 32 32 32 32 33 32 31 30 29 29 29 28 27 28 27 27 27 27 27 26 26 26 26 24 24 25 24 24 22 20 20 20 21 20 18 16 15 14 14 14 15 17 18 19 21 22 22 22 23 23 23 22 22 23 23
1 3 5 5 5 6 7 9 11 13 15 14 15 14 12 14 13 11 8 6 7 7 9 13 14 17 19 21 23 24 26 26 27 28 29 29 28 29 30 31 31 32 32 32 32 32 32 31 31 31 31 30 31 30 30 30 30 30 30 30 30 29 27 27 27 27 27 27 26 26 25 24 22 20 20 20 20 19 19 18 17 16 15 15 17 18 20 21 22 23 23 24 25 26 25 24 24
4 5 5 5 5 5 5 8 11 14 11 10 12 11 9 7 3 4 6 6 8 9 11 14 16 18 20 22 23 24 25 25 27 27 28 28 28 29 30 31 31 31 30 30 31 31 30 30 30 30 30 30 30 30 30 30 30 30 31 31 31 30 30 29 29 30 30 30 29 28 27 27 26 24 22 20 20 20 20 20 20 20 19 18 18 18 19 20 21 22 23 23 23 24 25 25 26
5 4 3 5 6 6 4 6 11 10 5 10 17 13 7 4 3 6 8 8 8 10 13 15 17 19 20 22 22 23 24 25 26 26 27 27 28 29 29 29 30 29 28 29 29 29 28 28 28 29 29 29 29 29 30 30 30 30 31 31 31 31 31 31 31 32 32 31 31 30 30 29 29 28 26 24 23 22 21 21 21 21 21 20 20 18 18 18 20 22 23 23 23 23 25 27 28
4 2 2 4 5 4 5 4 9 6 4 13 16 10 4 5 6 9 9 9 10 12 14 15 16 19 20 21 22 23 24 24 25 25 26 27 27 28 27 27 27 27 27 27 27 27 27 27 27 28 28 28 29 29 30 30 31 31 31 32 32 32 32 32 33 33 33 33 32 32 32 32 31 30 29 28 27 25 24 23 22 22 22 21 21 20 19 18 19 21 22 23 24 25 26 27 27
3 1 1 3 4 3 4 4 7 5 8 13 7 4 3 6 7 9 8 9 11 11 11 12 15 17 19 20 21 22 23 24 25 25 26 26 26 26 25 25 24 25 25 25 25 25 25 25 26 27 27 28 29 29 30 31 31 31 32 33 33 34 34 34 34 34 34 34 34 34 33 33 32 32 32 31 30 28 27 26 25 24 23 23 22 21 20 20 19 19 21 22 23 25 26 26 26
2 1 1 3 4 3 5 4 6 5 8 7 2 4 4 7 8 8 9 9 9 10 11 10 12 15 17 19 20 21 22 23 24 25 25 24 24 24 23 23 22 23 23 23 23 24 24 24 25 26 26 27 28 29 30 31 31 32 33 33 34 35 35 36 36 36 36 36 36 36 35 35 34 34 34 33 32 31 30 29 28 26 25 25 24 24 23 22 21 20 20 21 22 24 25 26 26
1 2 3 3 3 3 7 4 1 3 6 4 4 2 4 7 10 10 9 8 7 10 10 9 11 14 16 17 18 19 21 22 23 23 22 22 22 21 21 21 21 21 21 21 21 22 23 23 24 25 26 27 28 29 29 30 31 32 33 34 35 36 36 37 37 38 38 38 38 38 38 38 37 37 36 35 34 33 32 31 31 30 28 26 25 25 24 24 23 22 21 21 21 22 24 26 27
2 3 3 3 3 4 5 4 3 4 9 3 3 1 4 6 11 11 8 6 7 9 9 9 11 12 13 14 17 17 18 20 20 20 20 20 19 19 19 18 18 18 18 19 20 20 21 22 24 24 25 26 27 28 29 30 30 31 33 34 35 36 38 38 39 39 39 39 39 39 40 40 40 39 39 38 37 35 33 31 31 31 30 29 27 26 25 25 24 23 22 22 22 22 22 24 25
3 3 2 1 2 3 4 4 5 5 7 3 1 1 5 7 12 12 7 5 7 8 10 10 9 10 11 12 14 15 15 16 17 18 18 18 17 16 16 16 16 16 17 17 18 19 21 22 23 24 25 26 27 28 28 29 30 31 32 33 35 36 37 38 39 39 40 40 40 40 40 40 41 41 41 40 39 37 35 33 32 31 31 31 30 28 26 25 25 24 23 22 22 22 22 23 24
2 4 3 2 2 2 3 4 3 2 3 4 2 3 6 8 10 9 6 5 7 7 9 10 9 9 10 11 11 13 13 13 15 16 15 15 14 13 13 13 14 14 15 16 18 19 20 21 23 24 25 26 27 28 29 30 31 32 33 34 35 36 37 38 38 39 40 40 40 40 40 40 40 40 40 40 39 38 36 35 33 33 32 31 31 30 29 28 26 25 24 24 23 22 23 23 24
0 2 2 2 3 2 3 4 3 1 4 4 1 3 7 7 7 7 6 6 7 8 8 9 9 9 9 10 10 11 11 11 14 15 13 13 12 11 11 11 12 13 14 15 17 18 20 21 23 24 25 26 28 29 30 31 32 33 34 35 35 36 36 37 38 38 39 39 39 40 40 40 40 39 39 38 37 36 35 35 34 33 33 32 31 31 30 30 29 28 27 26 25 25 25 25 25
1 2 1 1 2 2 4 4 4 2 2 3 3 5 8 6 6 6 6 7 7 9 9 9 10 10 10 10 10 11 11 12 14 13 11 10 9 8 9 9 10 12 13 14 16 18 20 21 23 24 25 26 27 28 29 30 31 32 33 34 34 34 35 36 37 37 37 38 38 39 39 39 39 38 37 36 35 35 34 34 33 33 32 32 32 31 30 30 30 29 28 27 25 25 26 27 28
1 2 2 1 2 2 4 3 3 2 2 3 3 6 7 5 5 6 6 8 8 10 10 10 11 10 10 10 10 11 11 13 13 11 9 8 7 6 6 7 9 10 12 14 16 18 20 21 23 24 25 26 27 28 29 30 31 31 32 32 33 33 34 34 35 35 36 36 36 37 37 37 37 36 35 34 34 33 33 33 32 31 31 31 31 31 30 29 29 29 28 27 25 23 23 24 26
2 1 2 2 2 4 4 2 3 2 2 3 5 5 5 4 4 5 7 7 6 8 9 9 10 11 10 11 11 12 12 12 12 10 9 6 5 4 4 5 7 9 11 14 15 17 19 20 22 23 24 25 26 27 27 28 29 29 30 31 31 32 33 33 34 34 34 34 35 35 34 34 34 33 33 33 32 32 31 31 30 29 29 28 29 29 29 29 28 27 27 27 27 24 21 20 21
1 1 3 2 2 2 2 3 3 3 2 4 7 4 4 4 3 4 7 6 4 6 8 8 9 10 10 11 12 13 13 13 12 11 9 7 4 2 2 4 7 9 11 13 15 16 18 19 21 22 23 23 24 25 26 26 27 28 29 30 32 33 34 35 35 36 35 34 34 33 33 31 31 30 30 30 29 29 29 29 29 28 27 26 26 26 27 27 27 26 25 25 25 26 24 20 18
1 2 3 1 3 2 1 5 5 3 5 5 8 5 4 4 4 4 5 6 6 6 8 9 10 11 11 12 15 16 16 16 15 13 10 8 5 2 1 4 7 9 11 12 14 15 17 18 18 19 20 22 23 24 24 25 27 28 29 30 31 31 31 32 33 34 34 35 34 33 32 30 29 28 27 27 26 26 26 26 27 27 26 25 24 24 24 24 25 25 24 23 22 23 24 23 19
3 2 2 0 3 2 4 7 6 3 3 5 5 3 3 3 2 4 4 5 7 7 9 10 11 12 13 14 16 17 18 19 18 14 11 9 6 4 3 5 7 10 11 12 13 14 15 15 16 17 18 19 22 24 25 26 27 28 29 29 29 28 28 27 30 32 33 33 34 33 31 30 28 27 26 25 24 24 24 24 25 25 25 24 23 22 22 22 22 23 22 22 21 20 21 23 22
3 2 1 1 2 3 5 7 5 3 2 4 4 4 2 4 2 2 3 4 6 7 9 11 11 12 13 15 16 18 20 19 18 16 13 11 8 5 5 6 8 10 11 12 12 13 14 14 15 16 17 18 22 25 26 27 28 30 31 31 31 31 30 28 30 32 32 32 32 31 31 30 28 27 26 25 24 23 22 22 23 23 23 22 22 21 21 21 21 21 21 21 21 20 20 20 21
2 3 2 3 3 4 5 6 5 1 3 4 2 3 1 4 3 1 3 4 4 5 7 9 11 12 14 15 17 19 18 17 17 17 15 12 9 7 6 6 8 10 10 11 13 14 15 16 16 16 17 19 22 26 28 29 30 31 32 33 33 32 32 31 30 30 31 32 32 31 30 29 28 27 27 26 25 24 23 22 22 21 21 20 20 21 21 21 20 20 20 20 20 20 19 19 19
2 3 2 1 1 2 3 3 3 2 2 4 1 3 1 4 4 2 3 3 6 5 4 3 5 8 11 13 15 16 16 18 19 18 17 15 11 9 8 8 9 11 12 13 14 15 16 16 16 16 18 21 24 27 29 30 32 33 34 34 33 33 32 32 31 30 30 31 31 31 29 28 28 28 27 26 25 24 23 22 21 21 20 20 20 20 20 20 20 19 19 19 19 19 19 19 19
4 6 4 4 4 3 2 2 3 3 3 3 2 2 1 4 5 4 3 4 8 7 6 6 4 2 1 5 8 11 14 19 21 20 19 17 12 10 10 11 12 14 15 15 16 16 16 16 17 18 21 24 27 30 32 34 34 34 34 33 32 32 31 30 30 30 30 30 31 32 30 29 28 27 27 26 25 24 23 23 22 22 21 21 20 20 20 20 19 19 19 18 18 18 18 18 18
7 7 5 5 4 3 2 1 2 3 3 3 2 4 3 2 5 5 3 3 5 6 6 6 6 6 5 5 4 6 9 14 18 21 21 18 14 13 13 14 16 16 17 17 17 17 17 18 20 22 25 28 32 35 36 37 36 34 33 32 31 31 31 31 31 31 30 29 30 31 32 32 30 29 27 26 25 24 23 23 22 22 22 22 21 21 20 19 19 18 18 18 17 17 17 17 17
4 3 3 4 2 2 2 1 1 3 2 4 2 3 4 3 3 4 5 4 4 3 4 4 4 5 6 6 6 6 6 8 11 14 18 18 17 17 17 17 17 17 17 18 18 19 19 21 24 27 30 33 36 37 38 37 35 33 32 32 32 33 33 34 35 34 33 31 30 30 32 33 33 32 29 27 26 24 23 23 23 23 22 22 22 21 21 20 19 18 17 17 17 17 17 18 18
2 2 3 3 2 2 3 2 2 3 1 3 2 2 3 1 3 6 7 5 3 2 2 1 2 4 4 5 6 6 6 7 7 8 11 14 17 18 18 17 17 17 18 19 19 21 23 25 28 31 33 36 37 37 36 35 33 33 33 35 36 37 38 38 38 38 38 36 33 31 30 32 34 34 31 29 27 25 23 23 23 23 22 22 22 21 21 21 21 20 19 19 18 19 19 19 19
3 2 2 3 2 2 3 2 1 2 1 3 1 3 2 3 4 6 6 4 3 2 0 1 1 1 2 4 5 6 6 6 6 7 7 9 13 15 16 16 17 18 19 20 22 24 26 29 31 34 36 37 37 37 36 35 36 37 38 40 39 38 37 36 36 36 35 34 33 31 30 31 33 33 32 31 29 27 25 23 23 23 22 22 22 22 22 22 21 21 21 21 21 20 21 21 21
1 0 2 1 0 1 2 1 1 1 1 3 2 2 2 3 4 5 6 5 3 2 3 3 3 2 2 3 4 5 5 5 5 5 5 6 9 12 14 16 17 19 20 22 25 27 29 32 34 36 37 37 37 36 36 38 40 41 40 39 34 29 27 27 27 27 26 26 27 28 29 31 33 34 34 33 31 30 27 25 24 23 23 23 23 23 22 22 22 22 22 23 23 23 22 23 23
2 1 2 0 1 1 1 1 2 1 1 1 3 1 1 2 3 4 5 5 4 4 5 5 4 4 4 3 3 3 3 3 3 3 4 6 9 11 14 17 19 21 22 24 27 29 32 34 36 36 36 35 35 36 38 39 40 39 35 29 24 22 22 23 23 23 23 23 23 23 24 26 28 31 33 33 33 32 30 27 26 24 24 24 24 23 23 22 22 23 23 23 24 24 25 24 24
1 1 0 1 1 0 2 2 2 1 2 1 2 2 3 3 2 5 5 5 6 6 6 6 6 5 4 3 2 1 1 1 2 3 6 8 11 14 17 19 21 22 24 26 29 31 33 34 35 35 34 34 35 37 38 38 36 31 24 20 20 21 22 22 22 22 23 23 21 20 20 21 22 24 28 30 31 32 31 30 29 27 26 25 25 24 23 23 23 23 24 24 25 25 25 25 25
2 1 3 2 1 0 1 0 1 1 3 1 2 1 2 4 3 6 8 8 8 7 6 6 5 4 3 1 1 3 3 3 4 6 9 12 15 17 19 21 22 23 25 27 29 31 32 32 33 33 33 34 35 35 34 33 28 22 18 18 21 21 20 20 20 21 22 22 22 21 21 23 23 24 26 29 30 31 31 31 30 29 29 27 26 26 25 24 24 25 25 25 25 25 26 26 26
3 3 4 1 1 1 1 1 1 1 2 1 1 0 2 5 4 8 12 11 9 7 5 4 3 2 1 3 4 5 5 5 6 9 12 16 18 19 19 20 21 23 25 26 28 30 31 31 31 31 32 33 32 31 31 27 21 17 18 19 20 19 19 19 19 21 22 22 23 23 23 24 25 24 25 26 27 28 29 30 28 28 29 29 28 27 26 26 26 26 26 26 26 26 26 26 26
4 4 3 1 2 1 0 0 1 2 2 2 1 1 3 5 5 10 13 11 8 6 4 2 1 2 4 5 6 8 8 9 10 12 13 16 18 18 18 19 21 23 24 26 28 28 28 28 28 30 31 31 28 28 27 22 16 15 17 18 19 18 18 19 20 21 22 22 23 25 25 25 26 25 24 23 24 24 25 26 27 26 27 28 29 28 28 28 27 27 26 26 26 27 26 26 26
1 2 2 1 1 0 0 1 1 1 2 2 2 2 3 3 3 8 11 9 8 5 3 2 2 4 6 7 9 10 11 11 12 12 12 14 17 17 18 19 21 23 25 26 26 25 25 25 26 28 29 27 25 24 22 18 15 15 16 17 17 16 16 19 23 24 24 25 27 27 28 28 28 27 26 26 25 24 23 23 24 25 26 26 28 29 29 29 28 27 27 26 27 27 26 26 26
1 1 1 2 2 1 2 1 1 1 2 1 1 4 2 3 3 5 8 8 7 7 5 4 4 6 8 10 11 12 12 11 11 11 12 14 17 17 18 20 22 23 24 23 22 21 21 23 26 29 28 25 24 22 17 14 14 15 15 16 16 16 17 22 27 28 28 28 29 30 30 30 29 28 26 26 26 25 25 24 24 24 24 25 27 29 29 29 28 27 26 26 26 26 26 26 27
Wind_Direction
319 322 312 232 181 166 160 189 218 169 247 244 199 171 148 144 110 152 146 147 128 97 80 79 82 77 101 108 105 80 46 41 17 12 64 92 116 19 10 8 8 9 354 349 348 345 347 344 347 353 358 356 348 340 339 339 337 334 332 333 331 328 324 319 314 305 297 289 284 279 277 275 264 264 274 273 269 260 250 248 249 248 249 248 248 249 245 243 244 245 240 232 223 217 215 216 218
322 331 315 188 165 176 170 199 256 187 223 232 180 160 119 153 195 156 143 128 100 111 111 95 91 88 102 109 104 79 48 49 53 83 63 55 160 359 3 14 9 10 354 344 341 339 343 343 346 348 348 346 341 332 328 328 326 327 326 325 323 324 323 319 311 303 300 295 293 287 279 277 270 265 268 266 264 256 247 245 247 247 247 249 249 249 249 249 248 245 240 234 222 219 217 216 219
332 350 39 162 163 188 164 199 255 209 224 230 153 111 133 174 169 128 113 95 103 122 119 107 94 76 115 112 70 66 63 64 65 92 65 44 167 293 360 21 12 9 352 339 339 342 347 349 352 352 351 348 344 338 333 329 324 321 321 320 315 313 316 312 305 301 298 296 295 292 284 280 274 269 268 265 259 247 239 237 240 242 244 248 249 247 250 253 251 248 246 241 229 222 221 219 219
355 352 159 161 176 199 189 214 252 239 233 224 145 130 162 171 131 105 94 99 123 132 125 120 90 39 99 94 57 78 73 54 35 52 62 48 76 359 6 17 15 8 342 336 344 353 354 354 355 353 352 350 347 344 341 338 332 327 324 320 314 308 307 304 299 296 293 293 291 290 288 285 280 274 267 262 257 242 232 232 234 236 239 244 249 249 250 250 254 257 252 249 239 223 217 222 222
47 2 162 178 198 194 210 243 234 244 241 174 137 137 144 114 116 119 111 118 132 137 133 119 97 77 87 66 48 77 44 51 26 44 68 42 40 14 7 4 7 355 331 340 349 355 354 351 350 347 346 346 345 343 341 340 336 332 329 324 318 310 304 299 295 293 291 290 288 288 287 284 285 284 273 259 253 244 230 227 230 232 235 239 248 249 251 251 255 256 247 252 253 238 218 217 221
79 17 142 178 198 164 218 227 210 212 39 15 119 132 131 101 125 130 122 118 103 114 127 106 113 110 87 60 62 62 37 76 36 44 61 33 27 5 357 351 347 335 330 339 343 346 346 346 344 342 342 341 340 338 336 335 333 330 329 325 321 315 306 298 292 289 287 286 285 286 287 287 287 289 287 265 244 236 227 223 226 228 233 235 242 246 252 251 250 257 257 256 256 257 237 217 216
184 167 136 172 164 209 237 230 218 177 76 4 79 124 131 117 142 142 137 131 99 95 111 109 118 111 95 90 76 60 56 84 63 52 49 19 5 349 347 347 333 317 322 331 337 339 340 340 339 339 339 339 337 335 333 332 332 330 328 326 321 318 312 303 295 290 285 284 283 284 287 290 292 290 296 280 241 228 222 217 219 224 230 230 235 242 251 250 252 261 262 257 247 253 250 242 243
190 193 204 210 180 207 247 224 204 145 91 355 355 78 110 150 162 156 152 143 114 97 103 116 120 101 99 111 93 66 67 81 73 59 43 24 357 340 340 338 322 312 322 328 332 333 334 335 336 339 337 336 335 334 334 333 333 331 330 328 325 322 319 313 305 299 292 288 284 285 287 289 294 293 295 288 246 228 219 210 210 219 225 228 235 241 246 250 253 251 245 249 248 250 251 251 256
193 209 221 224 221 205 227 197 178 109 118 139 305 338 51 172 177 167 148 114 106 96 73 104 148 112 112 100 94 76 64 82 74 59 38 21 359 345 340 333 326 324 327 327 328 329 329 332 334 334 333 333 333 334 335 335 335 334 333 332 330 327 326 322 316 312 307 299 291 288 289 289 292 290 289 286 248 223 211 200 202 216 225 230 240 245 252 255 249 248 248 252 252 241 240 243 247
195 211 210 217 239 215 213 199 166 132 125 93 359 80 110 160 172 164 138 112 102 98 72 81 98 112 119 100 94 70 55 97 96 64 17 3 2 352 342 336 335 333 333 330 328 327 328 330 329 329 329 330 331 333 335 336 336 337 338 337 335 333 330 327 324 322 316 307 300 295 297 298 294 290 287 282 247 218 206 200 208 225 224 225 237 245 254 258 249 249 251 256 270 266 264 261 253
206 198 189 224 224 221 220 193 163 135 115 147 114 82 118 153 155 126 121 110 86 90 80 80 92 108 112 98 98 67 53 95 153 127 336 351 358 352 347 345 342 339 337 333 330 329 328 326 326 326 326 327 329 331 334 336 337 339 341 341 339 335 332 330 330 328 321 311 310 313 318 317 311 306 290 265 236 216 217 218 219 222 219 231 241 237 243 254 259 261 257 255 282 294 294 286 281
219 170 192 231 227 238 235 189 169 138 142 166 125 90 124 151 150 128 118 112 95 89 60 46 103 122 115 106 106 73 58 87 107 67 360 356 353 352 351 348 344 341 338 334 331 326 325 323 325 326 326 327 326 328 332 335 338 341 344 344 342 339 337 336 335 333 328 332 341 343 346 353 0 352 305 232 219 222 228 221 219 227 237 250 246 231 236 248 258 262 261 257 270 293 301 299 307
222 173 209 235 243 240 189 187 161 149 165 152 105 82 112 109 101 105 114 101 81 90 47 44 118 119 100 116 105 62 63 75 51 26 4 352 350 348 343 341 338 335 331 328 325 323 323 324 326 328 327 326 326 327 330 333 338 343 344 343 348 350 348 345 348 2 8 12 19 29 43 51 52 53 99 168 203 232 234 227 236 248 251 246 237 232 237 243 252 258 263 268 270 275 283 301 315
206 190 228 215 158 207 194 189 167 192 169 122 91 79 90 69 57 66 108 93 52 75 59 59 122 116 92 119 100 45 46 53 32 17 358 345 341 335 331 330 327 325 321 319 320 322 326 328 331 332 331 330 331 332 331 334 337 342 343 345 359 2 2 12 33 52 52 48 60 73 73 71 76 88 99 98 88 96 224 228 235 240 233 229 231 231 232 237 246 252 261 271 270 267 259 259 287
187 175 218 173 169 192 207 219 180 212 161 119 119 108 91 67 70 68 66 84 67 98 89 58 97 117 87 100 68 35 32 35 24 13 354 337 325 321 321 322 322 319 317 319 323 327 332 336 339 338 339 339 340 340 339 339 338 341 345 356 10 8 14 32 59 75 88 96 95 97 98 102 105 102 95 84 83 81 167 220 216 221 223 229 235 236 239 242 241 243 254 260 258 256 247 239 251
173 168 209 188 193 207 197 177 191 207 144 121 132 122 96 66 74 81 61 95 97 93 95 59 69 93 86 80 64 36 29 27 18 8 347 329 319 317 318 319 319 320 325 334 338 342 345 348 350 350 349 347 346 348 347 346 345 343 349 12 20 10 18 30 74 100 114 118 113 116 118 117 110 103 98 82 69 36 342 257 230 231 233 230 237 243 247 247 244 247 253 252 244 241 242 241 247
172 190 225 206 207 209 181 179 192 162 122 133 141 133 112 85 76 90 82 94 93 79 80 72 72 85 81 75 59 37 29 21 15 9 348 334 333 333 333 337 343 350 356 360 0 360 359 359 1 1 357 353 352 350 350 352 352 349 353 20 30 13 17 22 48 114 129 126 123 125 118 111 103 97 99 97 46 352 331 284 245 239 242 236 238 244 243 242 245 251 250 248 250 246 248 250 250
182 218 222 220 205 182 180 182 181 124 140 147 148 130 119 113 104 110 90 79 89 82 77 76 73 69 65 61 50 39 30 21 19 15 9 12 21 25 26 25 24 23 19 16 15 13 12 14 14 13 10 8 6 3 2 3 1 358 357 9 27 25 18 17 16 54 128 131 129 128 119 106 97 78 66 63 319 304 299 287 265 250 251 250 247 247 246 243 241 247 248 248 259 260 258 259 253
195 226 225 229 157 116 118 162 158 128 139 133 121 108 106 109 118 127 109 84 91 86 81 84 72 58 58 57 48 44 38 34 33 33 40 44 48 47 43 40 36 34 30 26 24 24 26 29 29 28 25 23 22 21 20 17 11 6 3 2 16 29 31 25 15 31 123 146 157 172 198 215 313 308 339 340 314 304 295 283 274 257 250 252 255 256 257 256 252 250 251 255 265 268 265 261 257
195 213 239 197 121 123 151 171 147 105 131 127 114 105 92 98 117 117 124 106 78 70 70 70 56 47 56 58 53 55 53 53 56 58 59 57 56 54 51 49 45 43 41 38 37 36 37 36 35 33 32 31 31 32 32 31 27 21 19 19 18 20 26 32 29 28 91 168 198 225 248 273 287 284 300 312 301 296 296 287 275 261 249 248 251 258 260 261 263 262 262 264 266 269 270 267 264
183 216 281 104 139 150 135 179 157 118 134 128 121 114 95 95 99 92 131 119 75 63 53 54 54 55 63 65 66 68 71 73 73 72 70 67 65 63 61 59 57 55 53 51 49 46 44 43 40 37 36 35 33 35 36 36 35 32 31 30 27 20 16 17 14 13 15 10 272 261 265 275 282 281 282 285 285 285 288 287 275 259 251 248 247 251 257 259 262 265 266 268 269 269 270 271 267
174 192 23 86 157 152 97 193 180 141 138 130 123 120 111 106 81 54 53 77 80 70 57 70 69 70 75 78 81 83 85 83 81 78 76 74 73 72 71 69 68 65 62 60 57 54 53 52 49 45 43 42 39 39 38 36 34 31 30 30 30 28 24 20 16 14 10 8 357 337 319 300 294 295 286 273 274 281 287 291 280 262 251 247 247 250 255 258 260 263 265 267 270 269 267 269 266
211 154 95 121 147 100 79 159 169 150 143 133 122 119 117 111 77 51 62 73 87 89 79 84 77 81 89 92 96 95 91 87 84 82 79 79 77 76 75 74 72 70 69 68 66 64 61 60 57 54 52 52 51 50 47 44 40 35 33 31 29 29 28 26 23 21 18 16 11 1 356 348 340 338 328 299 280 280 285 289 280 266 257 251 252 255 258 259 261 263 263 266 269 270 268 267 267
246 162 137 165 129 77 91 132 146 146 132 119 120 116 98 98 94 71 72 76 89 95 85 86 90 98 102 103 103 98 93 89 86 84 83 81 79 79 78 77 76 75 73 72 71 68 66 64 62 61 59 57 56 54 51 49 47 43 39 37 34 32 30 29 28 25 22 22 19 14 9 4 360 359 357 350 329 308 299 294 282 266 259 256 255 256 258 257 259 263 264 265 267 269 270 271 273
231 167 129 146 112 90 115 126 131 128 120 117 110 92 68 92 108 87 74 83 94 92 90 94 102 109 111 110 105 100 96 93 90 88 86 85 84 84 82 81 79 77 75 73 72 70 67 66 64 62 60 59 56 54 51 49 47 44 42 40 38 35 32 32 31 28 25 24 22 19 15 10 5 1 358 358 355 347 337 326 312 291 271 265 262 260 258 255 253 256 261 264 266 267 267 269 272
124 127 124 128 108 102 118 120 125 124 123 121 101 84 91 105 103 82 77 102 104 103 107 108 114 116 114 111 107 104 100 97 95 93 91 91 89 87 84 83 80 78 76 74 72 69 66 64 62 60 57 56 54 51 50 47 45 42 40 38 36 35 33 30 29 27 26 24 23 20 17 15 11 6 359 355 352 350 348 343 337 330 314 296 287 280 275 267 258 251 251 256 261 265 266 266 267
97 114 111 106 100 103 125 127 131 129 128 132 113 102 110 108 84 84 106 121 112 115 119 121 122 117 115 112 108 105 103 101 99 97 97 95 92 89 87 85 81 79 76 73 70 67 64 61 58 55 53 51 49 47 45 42 40 38 36 34 32 30 29 27 24 24 23 21 19 17 15 14 12 9 4 358 352 347 344 341 339 336 333 325 316 306 295 286 277 265 256 254 255 257 261 265 265
99 133 125 107 102 97 106 137 150 140 125 131 121 114 104 69 53 102 127 133 123 122 124 124 122 118 116 113 110 107 105 104 103 103 101 98 95 91 89 86 82 78 74 71 68 64 61 58 55 51 48 45 43 41 38 36 34 32 30 28 26 24 22 21 19 18 17 16 14 11 10 9 8 6 5 2 356 350 344 340 336 332 330 328 325 321 312 302 294 286 276 270 265 257 257 261 263
100 149 180 140 134 115 77 114 163 158 142 141 130 128 112 63 83 112 128 134 130 128 124 123 120 119 117 114 113 111 110 109 108 107 103 100 97 93 88 85 82 78 73 69 66 62 58 54 51 48 44 40 37 35 33 30 28 25 24 21 19 18 16 15 14 13 11 10 8 6 6 4 3 1 359 358 356 352 347 342 338 334 329 324 320 318 316 312 304 297 290 283 274 265 260 261 263
128 127 276 183 183 160 67 98 160 142 144 149 147 198 138 88 115 128 136 142 139 131 122 123 121 119 119 116 115 114 114 113 111 109 106 102 98 94 89 84 81 77 72 68 64 59 54 50 47 43 39 36 33 31 28 26 23 21 19 17 15 13 11 10 9 8 7 5 3 2 1 360 359 358 355 353 351 348 346 343 340 335 330 325 320 316 313 311 307 302 296 289 280 272 268 267 268
140 122 261 211 218 155 78 100 159 143 153 160 284 251 138 114 144 147 150 155 148 136 127 125 123 121 121 119 119 118 118 117 114 111 107 104 99 95 90 85 80 76 71 65 60 55 51 45 42 39 35 33 30 27 25 22 20 18 16 14 12 9 8 6 5 4 2 1 360 358 358 357 356 355 353 351 348 345 343 340 338 335 331 326 322 318 315 311 308 304 298 292 285 278 273 272 270
138 207 198 189 228 148 94 72 186 152 158 200 280 212 119 127 152 155 159 163 156 142 131 129 127 126 125 124 124 122 121 120 117 113 109 105 100 96 90 85 79 73 68 61 55 51 46 41 38 35 31 29 27 24 22 20 18 16 13 11 9 7 5 4 3 2 360 358 357 356 355 354 354 352 351 350 348 346 342 338 335 333 330 326 321 318 314 311 308 305 301 297 290 283 277 275 272
173 235 226 172 190 166 124 73 25 131 144 163 275 194 99 127 150 155 163 168 164 147 135 136 135 133 133 131 131 127 125 123 119 116 112 106 101 95 89 83 76 70 63 57 51 46 42 37 34 30 27 25 23 21 19 18 16 14 11 9 7 5 3 2 1 0 359 357 356 355 353 352 351 350 349 348 347 346 342 338 333 329 328 325 323 317 313 309 306 304 302 300 297 291 284 279 275
179 212 239 165 175 174 157 111 70 127 146 117 332 89 84 119 146 155 165 173 172 159 148 149 147 147 144 140 139 135 132 129 125 121 115 108 101 94 86 79 72 64 57 50 45 39 35 32 28 25 23 22 20 18 16 14 12 11 10 7 5 3 1 360 358 357 356 356 355 353 352 351 349 348 347 346 345 344 342 339 335 330 326 324 323 320 316 311 307 303 299 297 298 297 293 286 281
199 199 204 165 179 180 148 121 79 126 141 110 120 113 103 122 145 155 165 177 180 169 159 157 159 158 154 151 149 145 142 138 135 128 119 112 103 94 85 76 66 57 49 43 37 32 28 25 21 19 17 16 14 13 11 10 9 8 8 6 4 2 0 358 356 355 353 352 352 351 350 349 348 347 345 344 343 342 340 339 336 332 327 324 322 320 317 313 309 305 299 295 292 294 295 292 287
158 178 201 170 172 148 100 91 44 345 126 107 80 109 122 137 147 155 164 179 190 176 166 166 168 170 168 165 163 157 151 149 144 135 125 116 105 96 84 71 60 50 42 35 29 24 20 16 14 12 10 9 8 6 6 5 5 5 5 3 2 0 358 356 354 352 351 350 348 347 347 346 345 344 343 342 341 340 339 337 334 331 327 324 321 318 317 315 313 310 306 301 294 291 291 291 290
106 140 162 167 178 118 102 94 45 328 141 86 49 94 114 132 140 151 164 176 190 183 179 180 178 179 179 177 174 168 164 162 154 141 133 124 110 97 80 65 53 42 32 25 20 15 12 9 7 5 4 3 3 3 2 2 3 2 2 1 359 358 355 353 351 350 348 347 345 344 344 343 342 341 340 340 339 337 336 334 332 329 325 322 321 320 318 317 315 313 311 308 303 297 292 290 289
140 188 172 196 223 104 97 98 49 312 235 107 115 110 102 117 138 150 167 180 192 192 191 189 186 186 185 185 183 178 176 171 162 152 147 135 117 99 76 58 43 33 24 17 13 10 7 4 3 1 0 0 1 2 1 1 1 360 359 358 356 354 352 351 349 347 345 344 343 342 340 339 338 337 337 336 335 333 332 330 328 325 323 320 319 319 319 318 316 315 313 311 309 305 299 293 290
157 195 213 217 174 108 111 116 58 343 238 154 158 130 97 111 138 158 179 189 198 202 202 197 190 192 191 192 191 189 187 182 177 171 165 155 139 112 69 46 29 21 14 10 8 6 3 1 360 359 358 359 360 1 1 360 358 356 355 354 352 350 348 347 345 343 343 342 340 339 338 336 335 334 333 332 330 329 327 325 323 322 321 319 317 317 317 318 318 317 315 314 312 310 306 300 294
191 214 228 202 140 150 163 141 91 33 25 146 160 136 102 130 146 174 195 202 217 217 213 212 206 203 200 199 199 197 197 196 194 190 185 181 171 145 40 22 12 8 6 4 3 1 359 358 357 357 357 356 356 357 357 356 354 352 351 349 347 346 344 343 342 341 340 339 337 336 334 333 331 330 328 327 326 324 323 321 321 321 322 321 320 318 317 317 319 319 319 316 315 313 311 308 300
177 229 236 163 153 202 65 117 128 75 60 124 159 148 118 145 166 177 189 207 230 224 211 218 219 214 211 210 210 207 206 205 203 202 201 200 201 215 322 356 357 357 356 356 356 355 355 354 353 353 353 351 351 351 351 350 348 348 346 345 343 341 340 339 338 337 334 333 332 330 329 328 327 325 324 323 321 320 320 319 320 320 322 323 323 322 320 319 319 319 321 320 318 316 314 313 309
156 193 259 110 158 166 116 133 160 180 132 146 189 199 126 121 171 176 172 204 221 210 210 223 220 216 217 218 219 218 217 216 212 210 208 210 217 233 295 330 340 345 346 345 347 346 344 343 341 341 342 342 343 343 344 344 343 342 340 339 336 333 331 329 329 329 328 326 325 323 323 322 322 321 320 320 319 319 319 318 319 319 320 322 323 324 323 321 320 319 320 322 321 320 316 315 314
169 138 155 135 153 174 173 177 197 225 138 146 212 252 139 121 126 163 191 222 223 210 216 226 220 216 220 222 226 226 226 225 221 218 217 220 229 245 281 310 328 335 331 328 327 325 323 324 324 327 331 335 337 338 339 339 338 337 334 333 330 326 323 320 320 322 322 320 318 316 316 316 317 317 317 317 318 318 318 318 317 317 318 320 322 323 324 323 322 320 320 322 322 321 319 317 317
149 117 152 171 192 208 201 203 209 177 101 136 192 291 163 137 109 135 221 221 208 207 215 222 220 219 223 227 232 233 232 231 229 229 228 230 239 255 279 304 315 311 304 304 305 307 311 315 319 323 327 331 334 336 336 336 334 332 330 327 325 321 317 312 310 311 314 314 313 311 311 311 311 312 313 313 316 317 317 316 315 314 314 317 319 321 322 322 322 321 320 320 320 320 320 319 319
84 117 143 148 187 195 189 197 169 135 160 153 102 325 195 136 115 154 219 177 136 126 131 167 207 221 228 236 243 244 243 241 239 238 239 240 245 259 278 291 289 287 290 294 297 302 307 312 317 321 324 328 330 332 332 332 330 328 326 323 320 317 312 308 304 302 305 308 308 306 305 306 306 306 307 308 310 313 314 313 311 309 309 311 314 317 319 320 320 320 318 317 316 317 318 317 318
113 131 116 105 101 90 117 163 133 148 207 154 89 320 244 147 143 159 189 151 125 113 100 89 86 93 247 259 262 260 256 255 251 248 247 245 245 255 267 272 276 280 286 292 297 301 306 311 315 318 320 323 325 327 328 328 327 325 323 320 317 314 312 310 306 302 302 303 304 303 301 300 301 301 301 302 304 307 309 309 306 303 303 305 309 311 314 316 317 317 317 316 314 313 313 313 314
134 147 124 114 106 88 91 67 121 188 198 140 97 335 317 173 160 154 143 114 108 117 114 90 72 58 33 1 328 296 278 270 263 257 254 249 245 253 262 267 273 280 287 294 299 302 306 310 314 316 318 320 322 324 325 325 325 322 320 317 314 313 313 313 311 307 303 300 298 299 298 296 295 296 296 296 298 301 304 305 302 299 299 301 304 306 309 311 314 315 317 317 316 314 312 311 312
150 173 150 139 122 124 152 104 208 222 185 136 109 345 298 222 157 136 122 92 75 94 107 86 53 37 21 4 353 338 318 301 286 271 260 251 246 250 259 268 276 284 292 298 302 305 307 311 314 317 319 321 323 324 324 324 323 321 319 316 315 313 313 312 311 309 306 302 296 293 293 291 291 292 292 291 292 295 299 300 298 297 297 299 301 303 305 307 310 313 315 318 318 317 315 314 316
202 187 171 192 177 172 197 168 204 236 144 123 112 340 280 206 97 119 123 99 74 66 72 61 16 7 5 359 355 350 339 326 314 298 272 253 246 248 259 273 284 292 297 302 306 308 310 313 316 319 322 323 324 324 323 323 321 320 319 318 317 316 314 311 309 307 305 302 297 291 287 285 286 287 288 289 288 289 293 294 294 294 296 299 300 301 303 304 308 311 313 315 316 317 316 315 316
196 185 193 225 193 189 209 182 221 252 101 117 148 316 249 148 103 116 119 90 77 87 97 214 272 314 342 359 360 356 348 338 326 316 295 262 250 253 266 280 291 297 302 305 308 311 314 318 320 322 323 323 324 324 324 324 323 323 322 321 320 317 315 311 308 305 302 300 297 293 288 284 283 282 283 286 286 284 287 288 289 290 293 297 299 301 303 304 307 310 312 313 314 315 316 315 314
130 249 257 241 164 261 238 213 245 245 95 130 179 272 230 160 116 104 104 90 89 114 140 154 164 153 75 36 22 9 356 348 341 328 307 280 267 269 278 288 295 300 305 308 312 315 319 321 323 323 324 325 326 326 326 327 326 324 323 322 321 318 315 311 308 306 304 301 299 296 293 290 287 281 278 281 282 281 282 284 285 286 289 293 296 298 301 304 306 308 310 311 312 313 313 314 315
129 229 256 327 33 353 82 62 23 37 334 183 181 232 22 80 94 106 111 114 127 152 155 159 167 147 112 84 54 22 5 355 346 325 306 295 290 290 292 296 301 305 310 314 317 320 321 322 323 323 324 324 324 324 325 325 323 323 322 322 320 318 315 314 312 309 307 304 302 299 297 295 293 287 280 278 279 279 281 282 282 282 285 288 290 293 296 299 302 305 307 308 308 310 311 312 314
158 181 173 69 17 31 118 103 64 73 258 198 166 185 117 123 161 153 161 169 168 178 176 171 167 149 124 100 75 359 331 323 315 307 306 304 302 302 301 302 305 309 313 316 317 318 318 318 318 318 318 319 321 322 323 324 323 323 323 321 320 320 319 318 316 315 313 310 307 304 300 297 296 293 287 282 278 277 278 280 280 278 280 283 285 287 290 292 295 298 301 303 304 305 307 310 312
246 168 115 120 208 341 103 153 115 188 255 177 160 222 172 193 181 156 184 193 176 174 175 167 150 126 108 116 219 244 234 249 283 296 302 306 305 304 302 302 305 308 310 310 310 311 312 312 313 314 317 320 323 324 325 325 325 323 321 320 321 323 323 321 320 319 318 317 316 313 310 307 305 303 299 292 283 276 276 278 278 276 276 278 280 282 284 286 289 291 294 297 299 301 303 306 308
33 95 101 132 231 163 139 208 191 234 266 233 174 351 250 227 177 164 191 193 175 171 164 143 117 103 170 208 224 237 242 251 276 297 303 305 304 301 299 299 300 301 302 303 304 306 308 311 314 318 322 324 325 325 325 325 324 320 319 321 322 323 322 322 322 321 321 321 321 320 318 318 316 315 312 305 297 289 285 282 279 276 273 274 275 277 279 281 282 283 286 291 294 296 299 302 305
59 102 108 360 341 338 65 97 301 271 259 269 223 163 226 223 181 175 186 181 169 165 143 115 138 227 229 231 235 243 251 260 279 294 297 298 299 297 294 294 295 296 297 300 303 307 311 315 320 323 324 325 324 324 325 324 321 319 319 320 320 321 322 323 322 322 322 321 320 320 319 319 319 319 318 316 311 307 300 293 286 280 275 273 273 272 273 274 275 277 279 283 287 290 294 298 300
124 172 150 94 84 359 302 119 43 308 260 243 257 251 217 172 165 173 168 163 164 157 142 173 228 246 240 243 251 255 256 263 280 288 286 289 293 291 288 288 290 293 297 302 307 312 317 320 323 323 323 323 323 323 322 320 318 319 318 318 319 321 322 322 320 319 319 317 316 316 316 316 317 317 316 315 314 312 310 306 298 289 280 274 271 270 270 270 270 271 273 277 282 285 289 293 296
292 263 172 141 126 165 217 210 106 13 282 231 249 279 245 133 151 168 155 156 161 158 171 200 239 255 247 248 254 256 255 262 275 280 281 286 288 284 283 286 291 296 302 307 311 316 318 320 321 321 322 323 323 321 318 316 317 317 315 315 317 318 319 319 319 318 316 315 313 313 313 314 314 314 313 312 311 309 308 307 304 298 288 277 271 268 267 267 267 268 270 274 278 281 285 290 292